Regional Weather Roundup
Issued by NWS

Home | Current Version | Previous Version | Text Only | Print | Product List | Glossary Off
Versions: 1 2 3 4 5 6 7 8 9 10 11 12 13 14 15 16 17 18 19 20 21 22 23 24 25 26 27 28 29 30 31 32 33 34 35 36 37 38 39 40 41 42 43 44 45 46 47 48 49 50

000
ASUS43 KBIS 161910
RWRND

NORTH DAKOTA REGIONAL WEATHER ROUNDUP
NATIONAL WEATHER SERVICE BISMARCK ND
200 PM CDT MON OCT 16 2017

NOTE: "FAIR" INDICATES FEW OR NO CLOUDS BELOW 12,000 FEET WITH NO
SIGNIFICANT WEATHER AND/OR OBSTRUCTIONS TO VISIBILITY.


NDZ001>003-009>011-017-162000-
NORTHWEST NORTH DAKOTA

CITY           SKY/WX    TMP DP  RH WIND       PRES   REMARKS
WILLISTON      SUNNY     66  35  31 W21G29    29.93F
MINOT          SUNNY     67  34  29 W20G28    29.87F
MINOT AFB      SUNNY     66  34  30 NW17      29.85F
$$

NDZ018>021-031>035-040>046-162000-
SOUTHWEST NORTH DAKOTA

CITY           SKY/WX    TMP DP  RH WIND       PRES   REMARKS
BISMARCK       SUNNY     72  34  24 W22G28    29.95F
DICKINSON      SUNNY     67  31  26 W14G25    29.98F
GARRISON         N/A     66  33  29 W23G36    29.91F
HETTINGER ARPT CLOUDY    69  31  24 NW17      30.04F
$$

NDZ004>008-012>016-024-026-027-054-162000-
NORTHEAST NORTH DAKOTA

CITY           SKY/WX    TMP DP  RH WIND       PRES   REMARKS
GRAND FORKS    MOSUNNY   70  36  28 SW17G25   29.84F
GRND FRKS AFB    N/A    N/A N/A N/A W13       29.84F
DEVILS LAKE    SUNNY     64  37  36 W20       29.86F
$$

NDZ022-023-025-028>030-036>039-047>053-162000-
SOUTHEAST NORTH DAKOTA

CITY           SKY/WX    TMP DP  RH WIND       PRES   REMARKS
FARGO          SUNNY     68  38  33 SW24G32   29.91F
JAMESTOWN      SUNNY     68  35  29 W16       29.91F
$$





USA.gov is the U.S. government's official web portal to all federal, state and local government web resources and services.